Home   Weather   Soltau   Past weeks

Flag for Germany Past Weather in Soltau, Lower Saxony, Germany — Yesterday and Last 2 Weeks

Now
52 °F

Passing clouds.


Feels Like: 52 °F
Forecast: 48 / 74 °F
Wind: 2 mph from Northwest

Location: Fassberg

Current Time: Sep 1, 2016 at 4:03:34 AM

Latest Report: Sep 1, 2016 at 3:20 AM


Visibility: N/A

Pressure: 30.09 "Hg

Humidity: 94%

Dew Point: 50 °F

Location of SoltauLocation

Past Weather in Soltau — Graph

°F

Soltau Temperature Yesterday

Maximum temperature yesterday: 79 °F (at 2:20 PM)
Minimum temperature yesterday: 46 °F (at 4:20 AM)
Average temperature yesterday: 63 °F

High & Low Weather Summary for the Past Weeks

 TemperatureHumidityPressure
High93 °F (Aug 26, 4:20 PM)100% (Aug 18, 6:20 AM)30.33 "Hg (Aug 18, 6:20 AM)
Low39 °F (Aug 17, 6:20 AM)24% (Aug 25, 4:20 PM)29.80 "Hg (Aug 20, 12:20 AM)
Average66 °F71%30.06 "Hg
* Reported Aug 17 2:20 AM — Sep 1 2:20 AM, Soltau, Weather by CustomWeather, © 2016

Note: Actual official high and low records may vary slightly from our data, if they occured in-between our weather recording intervals... More about our weather records

Advertising

Soltau Weather History for the Previous 24 Hours

Scroll right to see more
 ConditionsComfort  
Time TempWeatherWind HumidityBarometerVisibility
2:20 AM
Thu, Sep 1
52 °FPassing clouds.1 mph94%30.09 "HgN/A
1:20 AM55 °FPassing clouds.1 mph88%30.09 "HgN/A
12:20 AM57 °FPassing clouds.No wind82%30.09 "HgN/A
11:20 PM
Wed, Aug 31
59 °FPassing clouds.1 mph82%30.09 "HgN/A
10:20 PM63 °FPassing clouds.3 mph68%30.09 "HgN/A
9:20 PM64 °FPassing clouds.1 mph68%30.09 "HgN/A
8:20 PM64 °FScattered clouds.1 mph64%30.07 "HgN/A
7:20 PM73 °FPassing clouds.3 mph41%30.07 "HgN/A
6:20 PM79 °FPassing clouds.7 mph30%30.09 "HgN/A
5:20 PM79 °FPassing clouds.7 mph30%30.09 "HgN/A
4:20 PM79 °FPassing clouds.7 mph32%30.09 "HgN/A
3:20 PM79 °FPassing clouds.8 mph28%30.12 "HgN/A
2:20 PM79 °FPassing clouds.9 mph32%30.12 "HgN/A
1:20 PM75 °FScattered clouds.12 mph34%30.15 "HgN/A
12:20 PM73 °FPassing clouds.12 mph38%30.18 "HgN/A
11:20 AM72 °FPassing clouds.10 mph41%30.18 "HgN/A
10:20 AM70 °FPassing clouds.6 mph46%30.18 "HgN/A
9:20 AM63 °FPassing clouds.3 mph68%30.21 "HgN/A
8:20 AM54 °FPassing clouds.1 mph88%30.21 "HgN/A
7:20 AM48 °FFog.1 mph87%30.21 "HgN/A
6:20 AM46 °FFog.2 mph93%30.21 "HgN/A
5:20 AM46 °FFog.3 mph93%30.24 "HgN/A
4:20 AM46 °FCool.3 mph93%30.24 "HgN/A
Weather by CustomWeather, © 2016

See weather overviewHow to use our weather pages